Voltar ao catálogo

STARLINK-5835

AtivoComunicaçõesVLEO
NORAD 55772·PAYLOAD·🇺🇸 United States

Lançado Mar 3, 2023 de Vandenberg Space Force Base

Loading…

Próximas Passagens (próximas 24 horas)

TLE

AtualizadoSource: CelesTrak SupGP

Época: Sep 15, 2026, 03:01 UTC

1 55772C 23028AH  26258.12618056 -.00025509  00000+0 -21377-2 0  2585
2 55772  69.9998 106.7034 0002938 272.9778  20.8708 14.98345032    18

Acompanhe STARLINK-5835 em tempo real com AllMySat

Download on the App Store